| time (UTC) | temp F | wind direction | speed MPH | gust MPH | rain 1hr in | rain 24hr in | rain mn in | humidity % | barometer mb |
| 20260505183001 | 55 | 165 | 4.0 | 8.0 | 0.00 | 0.00 | 0.00 | 57 | 1010.6 |
| 20260505181601 | 57 | 144 | 4.0 | 9.0 | 0.00 | 0.00 | 0.00 | 52 | 1010.4 |
| 20260505180059 | 59 | 154 | 2.0 | 10.0 | 0.00 | 0.00 | 0.00 | 47 | 1010.4 |
| 20260505174606 | 59 | 196 | 4.0 | 9.0 | 0.00 | 0.00 | 0.00 | 46 | 1010.3 |
| 20260505173058 | 57 | 39 | 0.0 | 4.0 | 0.00 | 0.00 | 0.00 | 48 | 1010.4 |
| 20260505171604 | 55 | 218 | 0.0 | 4.0 | 0.00 | 0.00 | 0.00 | 51 | 1010.5 |
| 20260505170056 | 55 | 220 | 1.0 | 4.0 | 0.00 | 0.00 | 0.00 | 53 | 1010.8 |
| 20260505164616 | 53 | 234 | 0.0 | 4.0 | 0.00 | 0.00 | 0.00 | 55 | 1010.4 |
| 20260505163102 | 52 | 274 | 1.0 | 5.0 | 0.00 | 0.00 | 0.00 | 57 | 1010.6 |
| 20260505161610 | 52 | 239 | 1.0 | 7.0 | 0.00 | 0.00 | 0.00 | 58 | 1011.0 |
| 20260505153048 | 51 | 261 | 5.0 | 10.0 | 0.00 | 0.00 | 0.00 | 60 | 1011.3 |
| 20260505151547 | 51 | 301 | 2.0 | 8.0 | 0.00 | 0.00 | 0.00 | 64 | 1011.4 |
| 20260505124526 | 53 | 346 | 0.0 | 2.0 | 0.00 | 0.00 | 0.00 | 45 | 1010.6 |
| 20260505123023 | 54 | 6 | 0.0 | 0.0 | 0.00 | 0.00 | 0.00 | 44 | 1010.9 |
| 20260505121524 | 54 | 6 | 0.0 | 2.0 | 0.00 | 0.00 | 0.00 | 43 | 1011.0 |
| 20260505120023 | 54 | 359 | 0.0 | 0.0 | 0.00 | 0.00 | 0.00 | 43 | 1010.8 |
| 20260505114522 | 54 | 139 | 0.0 | 0.0 | 0.00 | 0.00 | 0.00 | 42 | 1010.6 |
| 20260505113020 | 54 | 139 | 0.0 | 1.0 | 0.00 | 0.00 | 0.00 | 41 | 1010.6 |
| 20260505111524 | 54 | 118 | 0.0 | 2.0 | 0.00 | 0.00 | 0.00 | 40 | 1010.5 |
| 20260505101514 | 55 | 226 | 0.0 | 0.0 | 0.00 | 0.00 | 0.00 | 37 | 1010.6 |
| 20260505100018 | 55 | 167 | 0.0 | 2.0 | 0.00 | 0.00 | 0.00 | 36 | 1010.4 |
| 20260505094516 | 55 | 353 | 0.0 | 2.0 | 0.00 | 0.00 | 0.00 | 36 | 1010.4 |
| 20260505093010 | 56 | 357 | 1.0 | 3.0 | 0.00 | 0.00 | 0.00 | 37 | 1010.4 |
| 20260505091509 | 56 | 20 | 0.0 | 2.0 | 0.00 | 0.00 | 0.00 | 36 | 1010.6 |
| 20260505090007 | 57 | 124 | 0.0 | 2.0 | 0.00 | 0.00 | 0.00 | 37 | 1011.0 |
| 20260505084506 | 57 | 104 | 0.0 | 2.0 | 0.00 | 0.00 | 0.00 | 36 | 1011.2 |
| 20260505083012 | 57 | 193 | 1.0 | 5.0 | 0.00 | 0.00 | 0.00 | 35 | 1011.6 |
| 20260505081507 | 57 | 120 | 2.0 | 5.0 | 0.00 | 0.00 | 0.00 | 35 | 1011.5 |
| 20260505080003 | 58 | 158 | 2.0 | 8.0 | 0.00 | 0.00 | 0.00 | 35 | 1011.4 |
| 20260505074502 | 58 | 232 | 1.0 | 5.0 | 0.00 | 0.00 | 0.00 | 35 | 1011.7 |
| 20260505073100 | 59 | 237 | 0.0 | 3.0 | 0.00 | 0.00 | 0.00 | 33 | 1011.5 |
| 20260505071610 | 59 | 72 | 0.0 | 5.0 | 0.00 | 0.00 | 0.00 | 32 | 1011.4 |
| 20260505070105 | 60 | 169 | 1.0 | 7.0 | 0.00 | 0.00 | 0.00 | 32 | 1011.3 |
| 20260505064556 | 60 | 165 | 3.0 | 7.0 | 0.00 | 0.00 | 0.00 | 31 | 1011.3 |
| 20260505063051 | 60 | 204 | 0.0 | 4.0 | 0.00 | 0.00 | 0.00 | 30 | 1011.0 |
| 20260505061548 | 61 | 165 | 1.0 | 9.0 | 0.00 | 0.00 | 0.00 | 29 | 1011.2 |
| 20260505060046 | 61 | 159 | 1.0 | 9.0 | 0.00 | 0.00 | 0.00 | 28 | 1011.2 |
| 20260505054553 | 62 | 167 | 6.0 | 10.0 | 0.00 | 0.00 | 0.00 | 27 | 1011.2 |
| 20260505053055 | 62 | 149 | 2.0 | 9.0 | 0.00 | 0.00 | 0.00 | 27 | 1010.9 |
| 20260505051546 | 62 | 181 | 3.0 | 7.0 | 0.00 | 0.00 | 0.00 | 27 | 1010.8 |
| 20260505041546 | 64 | 128 | 1.0 | 6.0 | 0.00 | 0.00 | 0.00 | 27 | 1010.8 |
| 20260505040045 | 64 | 178 | 0.0 | 5.0 | 0.00 | 0.00 | 0.00 | 27 | 1010.8 |
| 20260505034544 | 64 | 199 | 0.0 | 4.0 | 0.00 | 0.00 | 0.00 | 26 | 1010.8 |
| 20260505033047 | 64 | 132 | 0.0 | 5.0 | 0.00 | 0.00 | 0.00 | 26 | 1010.6 |
| 20260505031543 | 65 | 182 | 1.0 | 4.0 | 0.00 | 0.00 | 0.00 | 25 | 1010.4 |
| 20260505030041 | 65 | 193 | 1.0 | 7.0 | 0.00 | 0.00 | 0.00 | 24 | 1010.2 |
| 20260505024541 | 66 | 174 | 2.0 | 9.0 | 0.00 | 0.00 | 0.00 | 23 | 1010.0 |
| 20260505023042 | 66 | 193 | 2.0 | 8.0 | 0.00 | 0.00 | 0.00 | 23 | 1009.9 |
| 20260505021540 | 67 | 187 | 4.0 | 14.0 | 0.00 | 0.00 | 0.00 | 23 | 1009.8 |
| 20260505020040 | 67 | 202 | 1.0 | 9.0 | 0.00 | 0.00 | 0.00 | 23 | 1009.5 |
| 20260505014539 | 68 | 179 | 1.0 | 6.0 | 0.00 | 0.00 | 0.00 | 23 | 1009.4 |
| 20260505013038 | 68 | 206 | 2.0 | 5.0 | 0.00 | 0.00 | 0.00 | 22 | 1009.2 |
| 20260505011549 | 68 | 183 | 2.0 | 9.0 | 0.00 | 0.00 | 0.00 | 21 | 1009.0 |
| 20260505010040 | 69 | 212 | 3.0 | 7.0 | 0.00 | 0.00 | 0.00 | 21 | 1009.0 |
| 20260505004540 | 69 | 196 | 2.0 | 8.0 | 0.00 | 0.00 | 0.00 | 20 | 1009.1 |
| 20260505003037 | 69 | 180 | 2.0 | 8.0 | 0.00 | 0.00 | 0.00 | 19 | 1009.1 |
| 20260505001538 | 69 | 131 | 2.0 | 10.0 | 0.00 | 0.00 | 0.00 | 19 | 1009.4 |
| 20260505000037 | 70 | 158 | 2.0 | 7.0 | 0.00 | 0.00 | 0.00 | 17 | 1009.3 |
| 20260504234535 | 70 | 205 | 3.0 | 9.0 | 0.00 | 0.00 | 0.00 | 17 | 1009.3 |
| 20260504233039 | 70 | 238 | 4.0 | 12.0 | 0.00 | 0.00 | 0.00 | 17 | 1009.6 |
| 20260504231532 | 71 | 180 | 2.0 | 15.0 | 0.00 | 0.00 | 0.00 | 16 | 1009.5 |
| 20260504230032 | 71 | 214 | 4.0 | 9.0 | 0.00 | 0.00 | 0.00 | 16 | 1009.6 |
| 20260504224532 | 72 | 173 | 4.0 | 11.0 | 0.00 | 0.00 | 0.00 | 15 | 1009.6 |
| 20260504223030 | 72 | 173 | 6.0 | 16.0 | 0.00 | 0.00 | 0.00 | 14 | 1009.8 |
| 20260504221531 | 73 | 257 | 5.0 | 13.0 | 0.00 | 0.00 | 0.00 | 14 | 1009.9 |
| 20260504220028 | 72 | 195 | 3.0 | 17.0 | 0.00 | 0.00 | 0.00 | 18 | 1009.9 |
| 20260504214527 | 72 | 153 | 1.0 | 11.0 | 0.00 | 0.00 | 0.00 | 22 | 1010.2 |
| 20260504213026 | 71 | 180 | 2.0 | 16.0 | 0.00 | 0.00 | 0.00 | 22 | 1010.4 |
| 20260504211526 | 73 | 159 | 4.0 | 9.0 | 0.00 | 0.00 | 0.00 | 21 | 1010.4 |
| 20260504210024 | 73 | 202 | 7.0 | 13.0 | 0.00 | 0.00 | 0.00 | 18 | 1010.9 |
| 20260504204520 | 72 | 230 | 5.0 | 12.0 | 0.00 | 0.00 | 0.00 | 19 | 1011.2 |
| 20260504203017 | 71 | 162 | 5.0 | 15.0 | 0.00 | 0.00 | 0.00 | 22 | 1011.6 |
| 20260504201514 | 70 | 180 | 6.0 | 13.0 | 0.00 | 0.00 | 0.00 | 23 | 1012.1 |
| 20260504200021 | 70 | 191 | 3.0 | 14.0 | 0.00 | 0.00 | 0.00 | 22 | 1012.3 |
| 20260504194510 | 69 | 149 | 3.0 | 9.0 | 0.00 | 0.00 | 0.00 | 23 | 1012.3 |
| 20260504193010 | 69 | 163 | 6.0 | 14.0 | 0.00 | 0.00 | 0.00 | 24 | 1012.7 |
| 20260504191520 | 69 | 141 | 5.0 | 16.0 | 0.00 | 0.00 | 0.00 | 24 | 1012.8 |
| 20260504190010 | 68 | 174 | 2.0 | 13.0 | 0.00 | 0.00 | 0.00 | 23 | 1013.0 |
| 20260504184511 | 69 | 184 | 6.0 | 15.0 | 0.00 | 0.00 | 0.00 | 23 | 1013.5 |